Showing default

QIANFAN-22, 61555

Orbit data source: Space-Track

QIANFAN-22, 61555 is a Chinese payload satellite in LEO that was launched on Tue, 15 Oct 2024 UTC via a CHANG ZHENG 6A launch vehicle from the Taiyaun Space Center, China (TSC). Payload-class satellites include a variety of spacecraft equipped with specific instruments for various scientific and technological missions. These include communications satellites like Starlink; space stations such as the ISS; scientific satellites like the Hubble; Earth observation satellites from companies like Planet Labs, Umbra, and HawkEye 360; GPS; miniature CubeSats for education and research; and military/defense satellites.

Loading next visibility...
Identifier
61555, 2024-185D
Orbit
LEO
Last TLE update
17 hours ago
Origin
Manufacturer
GESIH/SECM
Mission
Operational Commercial Communications
Bus & Motor
QIANFAN, Unknown motor
Mass
267 kg wet, ~267 kg dry
Launch date (UTC)
2024-10-15 (7 months ago)
Launch vehicle
CHANG ZHENG 6A
Launch site
Taiyaun Space Center, China (TSC)
Object type
Payload
Rocket body
Debris
Shape & HBR
Box + 1 Pan, 10 m
Radar Cross Section
13.200 m², Large (>1 m²)

Expand to show TLE details & history

TLE from 17 hours ago
0 QIANFAN-22
1 61555U 24185D   25128.87375619  .00000345  00000-0  28773-3 0  9998
2 61555  88.9800 103.0983 0005192 316.9766  43.0999 13.86200983 38764
Epoch: 2025-05-08T20:58Z
Definitive object data (Epoch: 2025-05-08T20:58:12.534Z)
Latitude
Longitude
-78.39192°
Altitude
942.204 km
Speed
7.382 km/s
True Right ascension
06h 52m 23s
True Declination
0° 00' 00"
Sunlit
Object was in daylight at TLE epoch
Visualization TLE readout
Latitude
26.3553°
Longitude
-77.96867°
Altitude
944.072 km
Speed
7.383 km/s
Apparent Right ascension
08h 27m 18s
Apparent Declination
-4° 42' 03"
Sunlit
Object is in daylight
Visualization observer readout
Local Sidereal Time
22:35:22
Azimuth
47.784° ENE
Elevation
-44.485°
Doppler factor
1
Orbital elements
Apogee altitude
942.774 km
Perigee altitude
935.176 km
Semi-major axis
7,317.112 km
Eccentricity
0.0005192
Inclination
88.98°
RAAN
103.0983°
Arg. of periapsis
316.9766°
True anomaly
43.14057°
Mean anomaly
43.0999°
Eccentric anomaly
43.12023°
Mean motion
3.46764 °/min
BSTAR
0.00028773
Orbital period
103.82 mins
Loading maneuver chart data...
Loading SW <> Apogee altitude chart data...
Loading historical data...
Loading historical data...
Loading historical data...
Loading historical data...
Loading historical data...
Loading historical data...
Loading historical data...

QIANFAN-22 Visibility forecast

Observer location: undefined°, undefined°

Span
Click to sort rows by Start time (UTC) header in descending order
Start Az.
Max El. time (UTC)
Max El. Az.
Max El.
End time (UTC)
End Az.
7 mins2025-05-09 21:22:13.303Z113.406° SE2025-05-09 21:25:13.303Z79.714° E18.907°2025-05-09 21:29:13.303Z34.486° NE
10 mins2025-05-09 23:04:13.303Z197.761° SSW2025-05-09 23:09:13.303Z286.172° WNW39.43°2025-05-09 23:14:13.303Z349.013° N
9 mins2025-05-10 09:57:13.303Z19.006° NNE2025-05-10 10:01:13.303Z79.422° E36.405°2025-05-10 10:06:13.303Z156.421° SSE
7 mins2025-05-10 11:42:13.303Z318.327° NNW2025-05-10 11:45:13.303Z278.662° WNW21.794°2025-05-10 11:49:13.303Z234.731° WSW
|